Weather Roundup
Issued by NWS Springfield, MO

Home | Current Version | Previous Version | Text Only | Print | Product List | Glossary On
Versions: 1 2 3 4 5 6 7 8 9 10 11 12 13 14 15 16 17 18 19 20 21 22 23 24 25 26 27 28 29 30 31 32 33 34 35 36 37 38 39 40 41 42 43 44 45 46 47 48 49 50
000
NZUS99 KSGF 281607
HRRSGF

HOURLY WEATHER
NATIONAL WEATHER SERVICE SPRINGFIELD MO
1100 AM CDT SUN AUG 28 2016

......SGF CWA......

CITY           SKY/WX    TMP DP  RH WIND       PRES   REMARKS
SPRINGFIELD    SUNNY     85  69  58 SE8       30.17S
JOPLIN         MOSUNNY   83  72  69 S3        30.15S
WEST PLAINS    MOSUNNY   84  68  58 E5        30.21S
ROLLA          SUNNY     82  72  71 SW3       30.18S
OSAGE BEACH    SUNNY     84  75  74 SE5       30.17S HX  92
BRANSON        PTSUNNY   82  73  74 S6        30.20R

......SURROUNDING SGF CWA......

CITY           SKY/WX    TMP DP  RH WIND       PRES   REMARKS
CHANUTE        SUNNY     84  74  71 S7        30.13S HX  91
PARSONS        SUNNY     85  73  67 SW8       30.15R HX  91
COFFEYVILLE    MOSUNNY   85  73  67 CALM      30.13S HX  91
EMPORIA        SUNNY     82  72  71 SE9       30.13R
GROVE OK       SUNNY     88  70  55 SE5       30.15R HX  92
ROGERS AR      SUNNY     85  70  60 S6        30.18F
SILOAM SPRINGS PTSUNNY   81  64  57 CALM      30.18S
HARRISON AR    PTSUNNY   82  70  66 SE8       30.19S
NEAR YELLVILLE PTSUNNY   82  72  69 E5        30.14F

......KANSAS AND MISSOURI......

CITY           SKY/WX    TMP DP  RH WIND       PRES   REMARKS
KANSAS CTY INT MOSUNNY   84  72  67 S6        30.14S
DOWNTOWN KC    SUNNY     86  71  60 S5        30.12S HX  91
COLUMBIA       MOSUNNY   83  75  77 S3        30.17R HX  90
SEDALIA        SUNNY     86  73  65 CALM      30.17S HX  93
ST JOSEPH      SUNNY     83  73  72 VRB3      30.12S
ST LOUIS       MOSUNNY   90  70  51 CALM      30.18R HX  95
SPIRIT OF STL  MOSUNNY   87  75  67 NW5       30.16R HX  96
KIRKSVILLE     SUNNY     83  73  72 CALM      30.17S
WICHITA        MOSUNNY   84  70  62 S7        30.11R
TOPEKA         SUNNY     84  73  69 SE3       30.11S HX  90
OLATHE         SUNNY     82  72  71 S5        30.15R

......TENNESSEE......

CITY           SKY/WX    TMP DP  RH WIND       PRES   REMARKS
MEMPHIS        MOSUNNY   92  73  53 E5        30.12S HX 100
NASHVILLE      MOSUNNY   88  73  61 CALM      30.18F HX  95

......ARKANSAS.......

CITY           SKY/WX    TMP DP  RH WIND       PRES   REMARKS
FAYETTEVILLE   MOSUNNY   82  71  69 CALM      30.16F
FT SMITH       SUNNY     86  72  62 NE7       30.11F HX  92
LITTLE ROCK    PTSUNNY   88  76  67 NE5       30.11S HX  99

......OKLAHOMA.......

CITY           SKY/WX    TMP DP  RH WIND       PRES   REMARKS
TULSA          MOSUNNY   87  74  64 S3        30.10S HX  95
PONCA CITY     MOSUNNY   85  70  60 S7        30.10F
MCALESTER      SUNNY     85  71  63 SE6       30.12S HX  90
OKLAHOMA CITY  MOSUNNY   84  72  67 S7        30.12S

......IOWA............

CITY           SKY/WX    TMP DP  RH WIND       PRES   REMARKS
DES MOINES     PTSUNNY   82  73  74 S7        30.14S
QUAD CITIES    SUNNY     83  74  74 VRB5      30.18R

......ILLINOIS........

CITY           SKY/WX    TMP DP  RH WIND       PRES   REMARKS
QUINCY         PTSUNNY   75  72  90 E7        30.19R
CHICAGO        CLOUDY    81  71  71 NE7       30.20S




USA.gov is the U.S. government's official web portal to all federal, state and local government web resources and services.